DECAYED

CZ-12A R/B, 67231 (Decayed)

Orbit data source: Space-Track

CZ-12A R/B, 67231 was space debris in LEO originally from a launch on Tue, 23 Dec 2025 UTC via a CHANG ZHENG 12A launch vehicle from the Jiuquan Satellite Launch Center, China (JSC). Debris objects in space refer to the collection of defunct objects orbiting the Earth. Examples of debris include non-operational satellites, rocket bodies, and fragments generated from explosions, collisions, or faulty payload assembly.

Not visible in the next 10 days
Identifier
67231, 2025-308A
Orbit
Decayed
Country
Flag of CNCN / PRC
Related business
Manufacturer
SAST
Mission
Decayed Civil Technology
Bus & Motor
UNK, Unknown motor
Mass
~1,000 kg wet, ~1,000 kg dry
Launch date (UTC)
2025-12-23 (6 months ago)
Launch vehicle
CHANG ZHENG 12A
Launch site
Jiuquan Satellite Launch Center, China (JSC)
Object type
Payload
Rocket body
Debris
Shape & HBR
Cyl, 8.0 m
Radar Cross Section
35.516 m², Large (>1 m²)

Expand to show TLE details & history
Last TLE update: 6 months ago

TLE from 6 months ago
0 CZ-12A R/B
1 67231U 25308A   25362.77966721  .11863649  47688-5  10694-3 0  9999
2 67231  69.6966  46.2284 0006373 167.5134 192.6259 16.51512804   934
Epoch: 2025-12-28T18:42Z
TLE epoch observation values (Epoch: 2025-12-28T18:42:43.246Z)
Latitude
-0.00012°
Longitude
28.06142°
Altitude
141.97 km
Speed
7.819 km/s
True Right ascension
03h 04m 54s
True Declination
0° 00' 00"
Sunlit
Object was in full shadow at epoch
Visualization orbit readout
Latitude
Unknown
Longitude
Unknown
Altitude
Unknown
Speed
Unknown
Apparent Right ascension
Unknown
Apparent Declination
Unknown
Sunlit
N/A
Visualization observer readout
Local Sidereal Time
07:19:44
Azimuth
Unknown
Elevation
Unknown
Doppler factor
Unknown
Orbital elements
Apogee altitude
137.349 km
Perigee altitude
129.05 km
Semi-major axis
6,511.337 km
Eccentricity
0.00064
Inclination
69.6966°
RAAN
46.2284°
Arg. of periapsis
167.5134°
True anomaly
192.60995°
Mean anomaly
192.6259°
Eccentric anomaly
192.61792°
Mean motion
4.13084 °/min
Orbital period
87.15 mins
BSTAR
0.00010694
Loading maneuver chart data...
Computing Atmospheric mass density...
Loading historical data...
Loading historical data...
Loading historical data...
Loading historical data...
Loading historical data...
Loading historical data...
Loading historical data...
Other satellites on launch #308 in the year 2025 (2025-12-23 UTC)

Documentation

Showing up to 5 results
|